Regional Weather Roundup
Issued by NWS Albany, NY

Home | Current Version | Previous Version | Graphics & Text | Print | Product List | Glossary Off
Versions: 1 2 3 4 5 6 7 8 9 10 11 12 13 14 15 16 17 18 19 20 21 22 23 24 25 26 27

000
ASUS41 KALY 240410
RWRALY

NEW YORK STATE HOURLY WEATHER ROUNDUP
NATIONAL WEATHER SERVICE ALBANY NY
1200 AM EDT SUN JUL 24 2016

NOTE: "FAIR" INDICATES FEW OR NO CLOUDS BELOW 12,000 FEET WITH NO
SIGNIFICANT WEATHER AND/OR NO OBSTRUCTIONS TO VISIBILITY.

NYZ032-033-038>043-046>054-057>066-NYZ062>081-082-084-240500-
EAST


CITY           SKY/WX    TMP DP  RH WIND       PRES   REMARKS
ALBANY         PTCLDY    66  63  90 W3        29.93R
GLENS FALLS    MOCLDY    61  59  93 CALM      29.93R FOG
POUGHKEEPSIE   CLEAR     70  60  70 CALM      29.91R
NEWBURGH       CLEAR     75  63  64 CALM      29.94R
MONTGOMERY     CLEAR     70  60  70 NW3       29.92R
WHITE PLAINS   PTCLDY    75  58  55 NW7       29.91R
ISLIP          PTCLDY    78  59  51 N7        29.89R
NEW YORK CITY  PTCLDY    86  57  37 N8        29.88R
CENTRAL PARK   CLEAR     85  55  35 VRB5      29.92R
$$

NYZ005>009-017-018-044>046-055-056-240500-
CENTRAL


CITY           SKY/WX    TMP DP  RH WIND       PRES   REMARKS
FULTON         CLEAR     71  65  81 CALM      29.97R
SYRACUSE       PTCLDY    71  62  73 NE5       29.96R
ROME           CLEAR     64  64 100 NE3       29.96S
ELMIRA         CLEAR     69  56  62 SW7       29.98R
BINGHAMTON     CLEAR     73  55  53 NW6       30.00R
MONTICELLO     CLEAR     64  57  77 NW5       29.99R
$$

NYZ026>034-041>043-087-240500-
NORTH


CITY           SKY/WX    TMP DP  RH WIND       PRES   REMARKS
WATERTOWN      CLEAR     63  61  93 CALM      29.96R
FORT DRUM      NOT AVBL
MASSENA        CLEAR     62  60  93 CALM      29.95R FOG
SARANAC LAKE   PTCLDY    55  53  93 CALM      29.97S FOG
PLATTSBURGH    MOCLDY    64  63  96 CALM      29.90F
$$

NYZ001>004-010>016-019>021-085-240500-
WEST


CITY           SKY/WX    TMP DP  RH WIND       PRES   REMARKS
NIAGARA FALLS  PTCLDY    76  57  51 N5        29.98R
BUFFALO        CLOUDY    75  67  76 CALM      29.99R
DUNKIRK        CLEAR     71  62  73 S5        29.99R
JAMESTOWN      CLEAR     72  57  60 N5        30.05S
WELLSVILLE     CLOUDY    72  56  57 CALM      30.08R
ROCHESTER      CLEAR     77  57  50 N7        29.98R
PENN YAN       CLEAR     74  57  55 SW5       29.99R
$$

             KEY
       WCI = WIND CHILL INDEX
       VSB = VISIBILITY
       HX  = HEAT INDEX
$$




USA.gov is the U.S. government's official web portal to all federal, state and local government web resources and services.